Weather History for Omaha, NE

Change the Weather History Date:

Saturday, May 17, 2014

  Actual Average Record
Temperature  
Mean Temperature 53 °F 63 °F  
Max Temperature 67 °F 74 °F 93 °F (1964)
Min Temperature 39 °F 51 °F 36 °F (1925)
Degree Days  
Heating Degree Days 12 4  
Month to date heating degree days 137 106  
Since 1 July heating degree days 6524 6108  
Cooling Degree Days 0 2  
Month to date cooling degree days 23 23  
Year to date cooling degree days 38 39  
Growing Degree Days 2 (Base 50)    
Moisture  
Dew Point 32 °F    
Average Humidity 53    
Maximum Humidity 86    
Minimum Humidity 20    
Precipitation  
Precipitation 0.00 in 0.17 in 2.80 in (1892)
Month to date precipitation 2.53 2.53  
Year to date precipitation 6.22 9.05  
Snow  
Snow 0.00 in 0.00 in - ()
Month to date snowfall 0.0 0.1  
Since 1 July snowfall 17.8 26.5  
Snow Depth 0.00 in    
Sea Level Pressure  
Sea Level Pressure 30.14 in    
Wind  
Wind Speed 4 mph (SW)    
Max Wind Speed 12 mph    
Max Gust Speed 16 mph    
Visibility 10 miles    
Events      
T = Trace of Precipitation, MM = Missing Value Source: NWS Daily Summary

Daily Weather History Graph

Daily Weather History Graph

Search for Another Location

Airport:

Trip Planner

Search our weather history database for the weather conditions in past years. The results will help you decide how hot, cold, wet, or windy it might be!

Date:

Astronomy

May. 17, 2014 Rise Set
Actual Time 6:03 AM CDT 8:37 PM CDT
Civil Twilight 5:31 AM CDT 9:09 PM CDT
Nautical Twilight 4:51 AM CDT 9:48 PM CDT
Astronomical Twilight 4:07 AM CDT 10:33 PM CDT
Moon 11:38 PM CDT (5/17) 8:47 AM CDT (5/17)
Length of Visible Light 15h 37m
Length of Day
14h 34m
Waning Gibbous, 89% of the Moon is Illuminated
May 17
Waning Gibbous
May 21
Last Quarter
May 28
New
Jun 5
First Quarter
Jun 12
Full

Hourly Weather History & Observations

Time (CDT) Temp. Windchill Dew Point Humidity Pressure Visibility Wind Dir Wind Speed Gust Speed Precip Events Conditions
12:52 AM 48.0 °F - 37.9 °F 68% 30.14 in 10.0 mi NW 3.5 mph - N/A   Clear
1:52 AM 46.0 °F - 37.9 °F 73% 30.14 in 10.0 mi Calm Calm - N/A   Clear
2:52 AM 41.0 °F 37.1 °F 36.0 °F 82% 30.15 in 10.0 mi WNW 5.8 mph - N/A   Clear
3:52 AM 44.1 °F 42.5 °F 37.0 °F 76% 30.15 in 10.0 mi WSW 3.5 mph - N/A   Clear
4:52 AM 42.1 °F - 37.0 °F 82% 30.15 in 10.0 mi Calm Calm - N/A   Clear
5:52 AM 41.0 °F - 37.0 °F 86% 30.16 in 10.0 mi Calm Calm - N/A   Clear
6:52 AM 42.1 °F - 37.9 °F 85% 30.17 in 10.0 mi Calm Calm - N/A   Partly Cloudy
7:52 AM 46.0 °F - 37.9 °F 73% 30.17 in 10.0 mi Calm Calm - N/A   Partly Cloudy
8:52 AM 48.9 °F - 39.0 °F 69% 30.17 in 10.0 mi Calm Calm - N/A   Partly Cloudy
9:52 AM 55.0 °F - 37.9 °F 53% 30.17 in 10.0 mi Calm Calm - N/A   Partly Cloudy
10:52 AM 59.0 °F - 24.1 °F 26% 30.17 in 10.0 mi Calm Calm - N/A   Partly Cloudy
11:52 AM 60.1 °F - 26.1 °F 27% 30.17 in 10.0 mi Variable 4.6 mph - N/A   Partly Cloudy
12:52 PM 61.0 °F - 26.1 °F 26% 30.16 in 10.0 mi Variable 4.6 mph - N/A   Partly Cloudy
1:52 PM 63.0 °F - 27.0 °F 26% 30.15 in 10.0 mi Variable 6.9 mph - N/A   Partly Cloudy
2:52 PM 63.0 °F - 27.0 °F 26% 30.14 in 10.0 mi SSE 5.8 mph - N/A   Partly Cloudy
3:52 PM 64.0 °F - 24.1 °F 22% 30.12 in 10.0 mi Variable 3.5 mph - N/A   Partly Cloudy
4:52 PM 64.9 °F - 25.0 °F 22% 30.10 in 10.0 mi South 8.1 mph - N/A   Partly Cloudy
5:52 PM 66.0 °F - 24.1 °F 20% 30.09 in 10.0 mi West 3.5 mph - N/A   Partly Cloudy
6:52 PM 66.0 °F - 26.1 °F 22% 30.09 in 10.0 mi South 5.8 mph - N/A   Scattered Clouds
7:52 PM 64.9 °F - 27.0 °F 24% 30.09 in 10.0 mi WSW 5.8 mph - N/A   Scattered Clouds
8:52 PM 62.1 °F - 30.0 °F 30% 30.10 in 10.0 mi WSW 6.9 mph - N/A   Scattered Clouds
9:52 PM 60.1 °F - 30.9 °F 33% 30.11 in 10.0 mi WSW 5.8 mph - N/A   Partly Cloudy
10:52 PM 53.1 °F - 35.1 °F 50% 30.13 in 10.0 mi SE 4.6 mph - N/A   Clear
11:52 PM 51.1 °F - 39.0 °F 63% 30.14 in 10.0 mi SSE 5.8 mph - N/A   Clear